Wind_Speed
17 17 16 14 14 13 14 14 14 13 12 10 9 7 7 7 5 4 4 1 1 2 3 4 6 8 9 11 13 14 11 11 12
15 14 13 13 12 12 12 13 13 11 12 12 11 10 10 9 8 7 5 4 3 4 4 5 6 8 9 11 12 12 11 11 16
13 12 13 12 11 12 11 13 12 13 12 13 11 11 12 11 10 9 7 7 6 5 5 6 7 8 10 12 13 13 13 14 19
14 13 12 12 12 12 11 12 11 12 13 12 14 14 15 14 15 11 8 8 8 7 7 8 8 8 9 11 13 14 15 17 18
12 12 13 13 13 12 12 13 12 14 13 15 16 18 19 19 16 15 12 12 10 9 10 10 10 10 10 10 12 14 16 17 19
13 12 13 13 12 13 13 12 13 13 13 16 17 20 19 19 19 18 15 14 13 11 10 11 10 10 10 10 10 10 12 14 16
12 11 12 12 12 12 12 12 13 14 14 15 17 20 20 20 21 17 16 17 15 14 13 12 12 12 12 12 12 13 13 14 15
11 11 11 11 11 12 11 12 11 14 15 16 17 19 19 19 19 18 19 20 19 18 17 16 15 15 16 16 15 15 16 16 17
10 10 10 10 10 11 11 10 12 14 14 15 16 19 19 19 20 20 21 20 21 20 19 19 19 18 18 19 19 17 17 16 17
10 10 9 9 9 10 10 10 11 12 13 14 17 18 19 20 21 21 22 22 23 23 23 21 21 21 21 21 21 20 19 19 21
11 10 9 10 10 10 10 9 9 10 13 13 15 16 18 18 20 21 21 22 23 23 24 23 22 22 23 23 24 23 24 24 25
11 11 10 10 9 9 8 8 8 9 11 11 11 13 14 16 16 17 18 19 20 22 23 23 23 23 22 21 21 22 22 22 23
12 12 11 11 10 9 9 8 8 8 9 10 9 9 10 11 12 13 15 16 17 19 20 22 22 22 23 24 26 27 21 15 12
14 14 12 12 12 11 10 9 9 10 10 11 11 11 10 10 10 10 10 10 11 13 14 16 18 18 20 21 22 23 24 26 24
17 15 14 13 13 12 11 10 9 10 11 12 12 12 12 11 11 11 11 11 11 12 12 12 13 13 14 15 15 14 15 20 21
19 18 17 15 15 14 13 12 12 12 12 13 14 15 15 15 14 13 13 14 13 14 14 14 15 15 15 16 16 17 19 22 21
22 21 19 18 17 17 16 16 15 14 14 14 15 16 17 18 18 17 17 17 16 15 14 14 14 15 16 17 18 19 19 21 21
25 24 23 22 21 21 21 20 19 18 17 16 16 17 17 17 18 19 18 18 18 18 17 16 15 15 15 16 17 19 19 20 20
28 27 27 26 26 25 24 24 23 22 21 19 18 18 19 20 19 18 19 18 18 17 17 17 17 16 16 16 15 16 16 18 18
30 30 30 30 29 29 29 28 27 26 25 24 22 21 20 21 23 24 21 19 18 18 17 17 17 16 16 16 17 16 16 14 13
Wind_Direction
265 266 266 266 264 259 256 252 249 248 247 248 253 262 271 278 288 280 293 309 243 242 229 228 233 229 232 236 245 262 275 219 238
265 263 265 265 264 261 256 251 247 246 249 247 244 251 257 262 270 271 280 279 278 266 247 235 236 238 235 243 247 257 273 247 229
262 258 257 256 258 259 258 254 248 239 240 246 245 246 250 256 262 258 269 278 278 270 261 251 240 239 245 240 247 250 254 264 244
259 258 264 264 261 264 262 262 260 253 238 239 238 244 249 254 251 254 254 262 272 280 270 255 249 247 244 250 252 253 255 260 271
255 253 252 256 258 261 260 259 257 256 252 244 243 237 240 245 254 252 254 258 260 265 272 266 256 253 254 253 255 261 263 266 275
258 253 252 252 252 253 254 256 254 256 252 254 253 250 246 248 250 252 254 257 262 266 262 264 261 263 265 270 268 265 273 277 288
255 254 252 251 251 251 253 251 252 255 254 251 250 251 253 255 258 259 258 259 259 258 259 254 256 267 272 274 271 274 279 287 287
252 251 251 254 256 254 254 252 253 255 253 249 250 253 253 252 256 253 255 256 259 256 255 259 262 264 268 271 274 280 290 287 287
254 252 252 252 255 258 256 258 256 259 260 257 256 256 256 256 254 252 252 253 254 257 256 257 261 264 268 272 274 279 287 290 291
254 256 262 265 263 263 261 259 265 265 261 254 252 252 252 253 254 254 253 254 254 255 256 258 260 263 267 269 274 278 276 282 287
254 257 259 261 262 259 257 257 265 262 260 254 254 254 253 251 251 253 255 255 258 257 257 257 258 262 265 268 270 271 275 277 281
253 255 258 260 258 256 256 258 263 262 265 265 261 263 263 261 257 255 256 257 256 257 259 260 260 260 262 267 271 274 275 277 281
245 252 256 256 255 255 255 258 263 267 268 269 267 267 265 263 263 263 262 262 261 260 262 261 261 261 261 261 261 266 271 276 280
243 246 249 250 252 254 257 259 263 268 271 271 270 264 262 265 265 267 268 269 269 268 265 264 263 261 262 261 262 263 266 269 267
243 246 249 252 253 253 254 256 258 261 263 266 267 266 262 257 259 261 263 263 266 268 267 269 268 268 265 266 267 268 250 279 279
242 244 246 248 250 254 258 261 261 261 262 262 263 263 262 261 259 260 262 263 264 267 270 269 269 268 267 267 266 263 262 271 280
244 246 248 250 253 258 261 261 261 264 266 267 267 267 265 265 264 263 262 262 261 259 259 263 266 269 267 263 263 263 264 268 272
243 245 247 250 252 256 259 261 262 264 268 271 273 272 270 261 264 264 262 263 265 266 266 264 261 261 262 262 262 263 264 266 269
244 245 247 249 251 254 257 260 262 264 267 270 272 272 274 275 267 263 266 264 262 262 264 265 266 263 262 261 261 262 263 265 269
246 247 248 250 251 253 255 257 259 261 263 266 269 270 274 277 276 271 265 264 264 262 263 265 268 270 271 270 269 269 269 268 270
Height
3135 3136 3137 3138 3139 3140 3142 3142 3144 3145 3147 3149 3150 3150 3151 3152 3153 3153 3153 3154 3155 3155 3156 3158 3160 3161 3162 3163 3164 3164 3164 3165 3167
3131 3132 3133 3135 3136 3138 3139 3140 3141 3143 3144 3146 3148 3149 3149 3150 3151 3152 3153 3153 3154 3155 3155 3156 3158 3160 3161 3162 3163 3164 3164 3165 3166
3128 3130 3131 3133 3134 3135 3137 3137 3139 3141 3143 3144 3146 3147 3147 3148 3149 3150 3152 3153 3154 3154 3155 3155 3156 3157 3159 3160 3161 3162 3163 3164 3163
3127 3128 3129 3129 3131 3132 3134 3134 3136 3138 3140 3141 3143 3144 3144 3145 3146 3149 3150 3151 3153 3154 3154 3154 3155 3155 3157 3158 3159 3160 3161 3162 3162
3125 3126 3127 3128 3129 3130 3131 3132 3133 3135 3136 3137 3138 3139 3140 3141 3145 3146 3147 3149 3150 3151 3153 3154 3153 3154 3155 3155 3157 3159 3159 3160 3161
3123 3123 3124 3125 3127 3128 3129 3130 3131 3133 3134 3135 3136 3135 3136 3139 3141 3143 3146 3146 3148 3149 3151 3152 3152 3153 3153 3154 3155 3156 3157 3158 3159
3120 3121 3122 3123 3124 3124 3126 3127 3128 3129 3131 3132 3133 3133 3134 3136 3138 3142 3141 3144 3144 3147 3148 3149 3150 3151 3152 3152 3153 3154 3155 3155 3155
3118 3119 3120 3121 3122 3122 3123 3125 3125 3126 3127 3130 3129 3129 3131 3133 3134 3136 3138 3140 3142 3143 3145 3146 3147 3148 3149 3150 3150 3151 3152 3152 3152
3115 3116 3117 3118 3119 3120 3121 3121 3122 3124 3126 3126 3127 3127 3128 3129 3131 3132 3134 3136 3138 3140 3141 3143 3144 3144 3145 3146 3147 3148 3148 3148 3149
3112 3113 3114 3115 3116 3117 3118 3118 3119 3121 3121 3123 3123 3124 3125 3126 3127 3128 3130 3132 3134 3136 3137 3138 3139 3140 3141 3142 3143 3144 3145 3144 3145
3109 3110 3111 3112 3113 3114 3115 3115 3116 3118 3119 3120 3120 3121 3122 3123 3124 3124 3126 3127 3129 3131 3132 3134 3136 3136 3137 3138 3137 3139 3139 3140 3140
3106 3107 3108 3109 3110 3111 3112 3112 3113 3116 3117 3117 3118 3118 3119 3120 3120 3121 3122 3123 3125 3126 3127 3128 3130 3131 3133 3133 3133 3133 3134 3134 3134
3104 3105 3106 3107 3108 3109 3109 3110 3111 3113 3114 3115 3115 3115 3117 3117 3118 3118 3118 3119 3120 3121 3122 3123 3124 3125 3127 3128 3129 3129 3130 3131 3131
3101 3102 3103 3104 3105 3106 3107 3107 3109 3110 3111 3112 3113 3114 3114 3115 3116 3116 3116 3117 3117 3118 3118 3119 3120 3120 3121 3122 3123 3125 3124 3124 3126
3098 3099 3100 3101 3102 3104 3104 3105 3106 3107 3108 3109 3110 3111 3112 3113 3113 3114 3114 3114 3115 3115 3116 3116 3117 3117 3118 3118 3119 3120 3121 3118 3120
3094 3095 3097 3098 3100 3101 3101 3102 3103 3104 3104 3106 3107 3108 3109 3110 3111 3111 3112 3112 3112 3112 3112 3113 3114 3114 3115 3116 3116 3117 3116 3116 3116
3089 3091 3093 3094 3096 3097 3098 3098 3099 3100 3101 3102 3103 3104 3106 3106 3107 3108 3108 3109 3109 3109 3109 3109 3110 3110 3111 3112 3112 3112 3113 3112 3112
3084 3086 3088 3090 3091 3092 3093 3094 3095 3096 3097 3098 3100 3099 3101 3102 3102 3103 3103 3104 3105 3105 3105 3105 3105 3107 3107 3106 3106 3107 3107 3108 3108
3078 3081 3082 3084 3086 3087 3089 3090 3091 3092 3093 3093 3094 3094 3095 3095 3098 3098 3098 3099 3100 3100 3101 3101 3102 3102 3102 3103 3102 3103 3102 3103 3104
3072 3074 3076 3078 3080 3082 3083 3085 3085 3087 3088 3088 3089 3089 3089 3089 3090 3091 3094 3095 3095 3095 3096 3096 3096 3097 3097 3098 3098 3098 3098 3099 3100